Retour au catalogue

SL-3 R/B

ActifPO
NORAD 7364·ROCKET BODY·🇷🇺 Russia

Lancé Jul 9, 1974 depuis Plesetsk Cosmodrome

Loading…

Prochains Passages (prochaines 24 heures)

TLE

FraisSource: Space-Track

Époque: Sep 14, 2026, 20:50 UTC

1 07364U 74052B   26257.86874348  .00000233  00000-0  13200-3 0  9995
2 07364  81.2303 117.7839 0049679  14.7569 345.5036 14.06470648675679

Suivez SL-3 R/B en temps réel avec AllMySat

Download on the App Store